Weather History for Poplar Bluff, MO

Change the Weather History Date:

Friday, October 12, 2012

  Actual Average Record
Temperature  
Mean Temperature 58 °F -  
Max Temperature 63 °F 71 °F 91 °F (1953)
Min Temperature 55 °F 47 °F 32 °F (1987)
Degree Days  
Heating Degree Days 6    
Growing Degree Days 8 (Base 50)    
Moisture  
Dew Point 53 °F    
Average Humidity 85    
Maximum Humidity 94    
Minimum Humidity 77    
Precipitation  
Precipitation 0.10 in - - ()
Sea Level Pressure  
Sea Level Pressure 30.24 in    
Wind  
Wind Speed 3 mph (NE)    
Max Wind Speed 10 mph    
Max Gust Speed 31 mph    
Visibility 9 miles    
Events Rain , Thunderstorm    
Averages and records for this station are not official NWS values.
T = Trace of Precipitation, MM = Missing Value Source: NWS Daily Summary

Daily Weather History Graph

Daily Weather History Graph

Search for Another Location

Airport:

Trip Planner

Search our weather history database for the weather conditions in past years. The results will help you decide how hot, cold, wet, or windy it might be!

Date:

Astronomy

Oct. 12, 2012 Rise Set
Actual Time 7:06 AM CDT 6:28 PM CDT
Civil Twilight 6:40 AM CDT 6:54 PM CDT
Nautical Twilight 6:10 AM CDT 7:24 PM CDT
Astronomical Twilight 5:40 AM CDT 7:54 PM CDT
Moon 3:53 AM CDT (10/12) 4:34 PM CDT (10/12)
Length of Visible Light 12h 13m
Length of Day
11h 21m
Waning Crescent, 10% of the Moon is Illuminated
Oct 12
Waning Crescent
Oct 15
New
Oct 21
First Quarter
Oct 29
Full
Nov 6
Last Quarter

Hourly Weather History & Observations

Time (CDT) Temp. Dew Point Humidity Pressure Visibility Wind Dir Wind Speed Gust Speed Precip Events Conditions
12:33 AM 55.4 °F 48.2 °F 77% 30.18 in 10.0 mi Calm Calm - N/A   Mostly Cloudy
12:53 AM 55.9 °F 50.0 °F 80% 30.19 in 10.0 mi NNE 3.5 mph - N/A   Overcast
1:53 AM 55.9 °F 50.0 °F 80% 30.19 in 10.0 mi NNE 3.5 mph - N/A   Overcast
2:04 AM 57.2 °F 50.0 °F 77% 30.19 in 10.0 mi Calm Calm - N/A Thunderstorm Overcast
2:31 AM 57.2 °F 51.8 °F 82% 30.20 in 10.0 mi NNE 4.6 mph - N/A   Overcast
2:53 AM 55.9 °F 51.1 °F 84% 30.19 in 8.0 mi NE 6.9 mph - N/A   Overcast
3:38 AM 55.4 °F 51.8 °F 88% 30.19 in 10.0 mi NNE 5.8 mph - 0.04 in Thunderstorm Overcast
3:53 AM 55.0 °F 52.0 °F 89% 30.19 in 5.0 mi NNE 3.5 mph - 0.07 in Rain , Thunderstorm Heavy Rain
4:01 AM 55.4 °F 51.8 °F 88% 30.19 in 9.0 mi Calm Calm - 0.01 in Rain Light Rain
4:27 AM 55.4 °F 51.8 °F 88% 30.20 in 7.0 mi Calm Calm - 0.01 in Rain , Thunderstorm Light Thunderstorms and Rain
4:53 AM 55.0 °F 53.1 °F 93% 30.20 in 10.0 mi Calm Calm - 0.02 in   Overcast
5:53 AM 55.0 °F 53.1 °F 93% 30.22 in 8.0 mi NE 5.8 mph - 0.00 in Rain Light Rain
6:10 AM 55.4 °F 53.6 °F 94% 30.22 in 6.0 mi Calm Calm - 0.01 in Rain Light Rain
6:37 AM 55.4 °F 53.6 °F 94% 30.24 in 8.0 mi NNE 4.6 mph - 0.01 in   Overcast
6:53 AM 55.0 °F 53.1 °F 93% 30.25 in 10.0 mi NNE 3.5 mph - 0.01 in   Overcast
7:02 AM 55.4 °F 53.6 °F 94% 30.24 in 10.0 mi NE 5.8 mph - N/A   Overcast
7:48 AM 55.4 °F 53.6 °F 94% 30.25 in 9.0 mi NE 3.5 mph - N/A   Mostly Cloudy
7:53 AM 55.0 °F 53.1 °F 93% 30.25 in 9.0 mi NE 5.8 mph - N/A   Mostly Cloudy
8:40 AM 55.4 °F 53.6 °F 94% 30.30 in 9.0 mi Calm Calm - N/A   Overcast
9:09 AM 55.4 °F 51.8 °F 88% 30.29 in 9.0 mi Calm Calm - N/A   Overcast
9:53 AM 55.9 °F 53.1 °F 90% 30.32 in 9.0 mi North 3.5 mph 31.1 mph N/A   Mostly Cloudy
10:04 AM 57.2 °F 53.6 °F 88% 30.32 in 10.0 mi North 3.5 mph - N/A   Mostly Cloudy
10:38 AM 57.2 °F 53.6 °F 88% 30.33 in 10.0 mi Variable 5.8 mph - N/A   Mostly Cloudy
11:23 AM 59.0 °F 53.6 °F 82% 30.33 in 10.0 mi East 6.9 mph - N/A   Scattered Clouds
11:44 AM 59.0 °F 53.6 °F 82% 30.32 in 10.0 mi ENE 6.9 mph - N/A   Mostly Cloudy
12:53 PM 61.0 °F 54.0 °F 78% 30.29 in 10.0 mi NE 10.4 mph - N/A   Overcast
1:53 PM 62.1 °F 55.0 °F 78% 30.26 in 10.0 mi ENE 9.2 mph - N/A   Overcast
2:53 PM 62.1 °F 55.0 °F 78% 30.27 in 10.0 mi NE 8.1 mph - N/A   Overcast
3:11 PM 62.6 °F 55.4 °F 77% 30.26 in 10.0 mi ENE 8.1 mph - N/A   Overcast
3:53 PM 62.1 °F 55.0 °F 78% 30.27 in 10.0 mi Calm Calm - N/A   Overcast
5:53 PM 62.1 °F 55.9 °F 80% 30.24 in 9.0 mi ENE 4.6 mph - N/A   Overcast
6:53 PM 61.0 °F 55.9 °F 83% 30.23 in 9.0 mi ENE 4.6 mph - N/A   Overcast
7:53 PM 61.0 °F 55.9 °F 83% 30.24 in 8.0 mi Calm Calm - N/A   Overcast
8:53 PM 61.0 °F 55.9 °F 83% 30.24 in 8.0 mi ENE 3.5 mph - N/A   Overcast
9:31 PM 60.8 °F 55.4 °F 82% 30.24 in 9.0 mi East 3.5 mph - N/A   Overcast
9:53 PM 61.0 °F 55.9 °F 83% 30.24 in 9.0 mi Calm Calm - N/A   Overcast
10:53 PM 60.1 °F 55.9 °F 86% 30.23 in 8.0 mi Calm Calm - N/A   Overcast
11:37 PM 60.8 °F 55.4 °F 82% 30.23 in 8.0 mi NE 3.5 mph - N/A   Overcast
11:53 PM 60.1 °F 55.9 °F 86% 30.24 in 8.0 mi Calm Calm - N/A   Overcast